| time (UTC) | temp F | wind direction | speed knots | gust knots | rain 1hr in | rain 24hr in | rain mn in | humidity % | barometer mb |
| 20260906100218 | 144 | 210 | 0.0 | 0.0 | 0.00 | 0.00 | 0.00 | 100 | 1011.8 |
| 20260906095717 | 144 | 210 | 0.0 | 0.0 | 0.00 | 0.00 | 0.00 | 100 | 1012.0 |
| 20260906095215 | 144 | 210 | 0.0 | 3.5 | 0.00 | 0.00 | 0.00 | 100 | 1012.1 |
| 20260906094942 | 144 | 210 | 0.0 | 3.5 | 0.00 | 0.00 | 0.00 | 100 | 1012.1 |
| 20260906094211 | 144 | 135 | 0.0 | 0.0 | 0.00 | 0.00 | 0.00 | 100 | 1012.2 |
| 20260906093659 | 144 | 135 | 0.0 | 0.0 | 0.00 | 0.00 | 0.00 | 100 | 1012.2 |
| 20260906093155 | 144 | 135 | 0.0 | 0.0 | 0.00 | 0.00 | 0.00 | 100 | 1012.2 |
| 20260906092643 | 144 | 135 | 0.0 | 2.6 | 0.00 | 0.00 | 0.00 | 100 | 1012.1 |
| 20260906092139 | 144 | 135 | 0.0 | 3.5 | 0.00 | 0.00 | 0.00 | 100 | 1012.0 |
| 20260906091636 | 144 | 205 | 0.9 | 3.5 | 0.00 | 0.00 | 0.00 | 100 | 1012.1 |
| 20260906091134 | 144 | 174 | 0.0 | 3.5 | 0.00 | 0.00 | 0.00 | 100 | 1012.1 |
| 20260906090903 | 144 | 174 | 0.0 | 3.5 | 0.00 | 0.00 | 0.00 | 100 | 1012.1 |
| 20260906090124 | 144 | 156 | 0.0 | 2.6 | 0.00 | 0.00 | 0.00 | 100 | 1012.0 |
| 20260906085619 | 144 | 156 | 0.0 | 3.5 | 0.00 | 0.00 | 0.00 | 100 | 1012.0 |
| 20260906085112 | 144 | 156 | 0.0 | 4.3 | 0.00 | 0.00 | 0.00 | 100 | 1012.0 |
| 20260906084607 | 144 | 217 | 0.0 | 4.3 | 0.00 | 0.00 | 0.00 | 100 | 1012.0 |
| 20260906084051 | 144 | 195 | 0.9 | 5.2 | 0.00 | 0.00 | 0.00 | 100 | 1012.1 |
| 20260906083530 | 144 | 194 | 0.0 | 7.8 | 0.00 | 0.00 | 0.00 | 100 | 1012.1 |
| 20260906083011 | 144 | 151 | 0.0 | 7.8 | 0.00 | 0.00 | 0.00 | 100 | 1012.0 |
| 20260906082459 | 144 | 147 | 0.0 | 5.2 | 0.00 | 0.00 | 0.00 | 100 | 1012.1 |
| 20260906081957 | 144 | 147 | 0.9 | 5.2 | 0.00 | 0.00 | 0.00 | 100 | 1012.1 |
| 20260906081457 | 144 | 113 | 0.0 | 6.1 | 0.00 | 0.00 | 0.00 | 100 | 1012.1 |
| 20260906080956 | 144 | 137 | 3.5 | 6.1 | 0.00 | 0.00 | 0.00 | 100 | 1012.1 |
| 20260906080457 | 144 | 157 | 0.0 | 6.1 | 0.00 | 0.00 | 0.00 | 100 | 1012.2 |
| 20260906075957 | 144 | 188 | 0.0 | 4.3 | 0.00 | 0.00 | 0.00 | 100 | 1012.3 |
| 20260906075459 | 144 | 194 | 0.0 | 4.3 | 0.00 | 0.00 | 0.00 | 100 | 1012.3 |
| 20260906074958 | 144 | 202 | 0.9 | 4.3 | 0.00 | 0.00 | 0.00 | 100 | 1012.4 |
| 20260906074443 | 144 | 196 | 0.0 | 4.3 | 0.00 | 0.00 | 0.00 | 100 | 1012.5 |
| 20260906073941 | 145 | 196 | 0.9 | 4.3 | 0.00 | 0.00 | 0.00 | 100 | 1012.5 |
| 20260906073428 | 144 | 153 | 0.0 | 5.2 | 0.00 | 0.00 | 0.00 | 100 | 1012.5 |
| 20260906072923 | 144 | 181 | 0.0 | 3.5 | 0.00 | 0.00 | 0.00 | 100 | 1012.6 |
| 20260906072413 | 145 | 237 | 0.0 | 3.5 | 0.00 | 0.00 | 0.00 | 100 | 1012.5 |
| 20260906071857 | 145 | 164 | 0.0 | 5.2 | 0.00 | 0.00 | 0.00 | 100 | 1012.6 |
| 20260906071335 | 145 | 154 | 0.9 | 5.2 | 0.00 | 0.00 | 0.00 | 100 | 1012.6 |
| 20260906070812 | 145 | 150 | 2.6 | 5.2 | 0.00 | 0.00 | 0.00 | 100 | 1012.8 |
| 20260906070311 | 145 | 189 | 0.0 | 5.2 | 0.00 | 0.00 | 0.00 | 100 | 1012.8 |
| 20260906065757 | 145 | 192 | 1.7 | 5.2 | 0.00 | 0.00 | 0.00 | 100 | 1012.9 |
| 20260906065252 | 145 | 170 | 1.7 | 4.3 | 0.00 | 0.00 | 0.00 | 100 | 1012.9 |
| 20260906064733 | 145 | 154 | 0.0 | 1.7 | 0.00 | 0.00 | 0.00 | 100 | 1012.9 |
| 20260906064504 | 145 | 154 | 0.0 | 7.0 | 0.00 | 0.00 | 0.00 | 100 | 1013.0 |
| 20260906063712 | 145 | 154 | 1.7 | 7.0 | 0.00 | 0.00 | 0.00 | 100 | 1013.1 |
| 20260906063203 | 145 | 120 | 0.0 | 5.2 | 0.00 | 0.00 | 0.00 | 100 | 1013.1 |
| 20260906062652 | 145 | 178 | 1.7 | 5.2 | 0.00 | 0.00 | 0.00 | 100 | 1013.1 |
| 20260906062145 | 145 | 94 | 0.0 | 2.6 | 0.00 | 0.00 | 0.00 | 100 | 1013.1 |
| 20260906061643 | 145 | 163 | 0.0 | 5.2 | 0.00 | 0.00 | 0.00 | 100 | 1013.1 |
| 20260906061131 | 145 | 160 | 1.7 | 5.2 | 0.00 | 0.00 | 0.00 | 100 | 1013.2 |
| 20260906060626 | 145 | 177 | 0.0 | 5.2 | 0.00 | 0.00 | 0.00 | 100 | 1013.3 |
| 20260906060110 | 145 | 151 | 3.5 | 5.2 | 0.00 | 0.00 | 0.00 | 100 | 1013.2 |
| 20260906055610 | 145 | 137 | 0.0 | 4.3 | 0.00 | 0.00 | 0.00 | 100 | 1013.2 |
| 20260906055111 | 145 | 149 | 1.7 | 4.3 | 0.00 | 0.00 | 0.00 | 100 | 1013.2 |
| 20260906054605 | 145 | 167 | 0.0 | 5.2 | 0.00 | 0.00 | 0.00 | 100 | 1013.3 |
| 20260906054313 | 145 | 167 | 0.0 | 5.2 | 0.00 | 0.00 | 0.00 | 100 | 1013.2 |
| 20260906053543 | 145 | 146 | 0.0 | 4.3 | 0.00 | 0.00 | 0.00 | 100 | 1013.0 |
| 20260906053042 | 145 | 146 | 0.0 | 4.3 | 0.00 | 0.00 | 0.00 | 100 | 1012.9 |
| 20260906052532 | 145 | 116 | 0.0 | 5.2 | 0.00 | 0.00 | 0.00 | 100 | 1012.9 |
| 20260906052030 | 145 | 153 | 0.0 | 5.2 | 0.00 | 0.00 | 0.00 | 100 | 1012.9 |
| 20260906051531 | 145 | 129 | 3.5 | 5.2 | 0.00 | 0.00 | 0.00 | 100 | 1013.0 |
| 20260906051023 | 145 | 125 | 0.0 | 3.5 | 0.00 | 0.00 | 0.00 | 100 | 1013.1 |
| 20260906050520 | 145 | 157 | 0.0 | 5.2 | 0.00 | 0.00 | 0.00 | 100 | 1013.2 |
| 20260906050015 | 145 | 144 | 2.6 | 5.2 | 0.00 | 0.00 | 0.00 | 100 | 1013.1 |
| 20260906045515 | 145 | 161 | 3.5 | 7.8 | 0.00 | 0.00 | 0.00 | 100 | 1013.2 |
| 20260906045014 | 145 | 208 | 0.0 | 8.7 | 0.00 | 0.00 | 0.00 | 100 | 1013.1 |
| 20260906044500 | 145 | 126 | 5.2 | 8.7 | 0.00 | 0.00 | 0.00 | 100 | 1013.2 |
| 20260906044231 | 145 | 170 | 3.5 | 7.0 | 0.00 | 0.00 | 0.00 | 100 | 1013.2 |
| 20260906043733 | 145 | 178 | 1.7 | 8.7 | 0.00 | 0.00 | 0.00 | 100 | 1013.2 |
| 20260906043606 | 145 | 175 | 3.5 | 8.7 | 0.00 | 0.00 | 0.00 | 100 | 1013.1 |
| 20260906042457 | 145 | 109 | 1.7 | 7.8 | 0.00 | 0.00 | 0.00 | 100 | 1013.1 |
| 20260906041957 | 145 | 123 | 0.9 | 7.8 | 0.00 | 0.00 | 0.00 | 100 | 1013.0 |
| 20260906041458 | 145 | 172 | 4.3 | 7.0 | 0.00 | 0.00 | 0.00 | 100 | 1012.9 |
| 20260906041227 | 145 | 181 | 0.9 | 5.2 | 0.00 | 0.00 | 0.00 | 100 | 1012.9 |
| 20260906040458 | 145 | 146 | 0.0 | 7.0 | 0.00 | 0.00 | 0.00 | 100 | 1012.9 |
| 20260906035948 | 145 | 98 | 3.5 | 7.0 | 0.00 | 0.00 | 0.00 | 100 | 1012.9 |
| 20260906035444 | 145 | 150 | 3.5 | 7.0 | 0.00 | 0.00 | 0.00 | 100 | 1012.8 |
| 20260906034940 | 145 | 97 | 3.5 | 8.7 | 0.00 | 0.00 | 0.00 | 100 | 1012.8 |
| 20260906034437 | 145 | 143 | 4.3 | 8.7 | 0.00 | 0.00 | 0.00 | 100 | 1012.8 |
| 20260906033936 | 145 | 161 | 3.5 | 5.2 | 0.00 | 0.00 | 0.00 | 100 | 1012.8 |
| 20260906033437 | 146 | 160 | 0.0 | 5.2 | 0.00 | 0.00 | 0.00 | 100 | 1012.9 |
| 20260906032937 | 146 | 167 | 4.3 | 8.7 | 0.00 | 0.00 | 0.00 | 100 | 1012.9 |
| 20260906032435 | 146 | 150 | 1.7 | 8.7 | 0.00 | 0.00 | 0.00 | 100 | 1012.8 |
| 20260906031936 | 146 | 115 | 1.7 | 7.0 | 0.00 | 0.00 | 0.00 | 100 | 1012.8 |
| 20260906031427 | 146 | 161 | 2.6 | 7.0 | 0.00 | 0.00 | 0.00 | 100 | 1012.5 |
| 20260906030927 | 146 | 163 | 1.7 | 6.1 | 0.00 | 0.00 | 0.00 | 100 | 1012.4 |
| 20260906030427 | 146 | 92 | 1.7 | 6.1 | 0.00 | 0.00 | 0.00 | 100 | 1012.3 |
| 20260906030151 | 146 | 143 | 2.6 | 8.7 | 0.00 | 0.00 | 0.00 | 100 | 1012.3 |
| 20260906025412 | 146 | 57 | 4.3 | 10.4 | 0.00 | 0.00 | 0.00 | 100 | 1012.3 |
| 20260906024910 | 146 | 163 | 4.3 | 10.4 | 0.00 | 0.00 | 0.00 | 100 | 1012.2 |
| 20260906024410 | 146 | 156 | 2.6 | 8.7 | 0.00 | 0.00 | 0.00 | 100 | 1012.0 |
| 20260906023909 | 146 | 170 | 2.6 | 7.0 | 0.00 | 0.00 | 0.00 | 100 | 1011.8 |
| 20260906023408 | 146 | 92 | 3.5 | 7.0 | 0.00 | 0.00 | 0.00 | 100 | 1011.7 |
| 20260906022909 | 146 | 136 | 0.9 | 7.8 | 0.00 | 0.00 | 0.00 | 100 | 1011.5 |
| 20260906022404 | 146 | 140 | 0.9 | 7.8 | 0.00 | 0.00 | 0.00 | 100 | 1011.4 |
| 20260906021905 | 146 | 142 | 4.3 | 8.7 | 0.00 | 0.00 | 0.00 | 100 | 1011.2 |
| 20260906021405 | 146 | 147 | 1.7 | 8.7 | 0.00 | 0.00 | 0.00 | 100 | 1011.1 |
| 20260906020900 | 146 | 123 | 3.5 | 7.8 | 0.00 | 0.00 | 0.00 | 100 | 1011.1 |
| 20260906020401 | 146 | 108 | 0.0 | 7.8 | 0.00 | 0.00 | 0.00 | 100 | 1011.0 |
| 20260906015857 | 146 | 151 | 0.0 | 7.8 | 0.00 | 0.00 | 0.00 | 100 | 1010.9 |
| 20260906015624 | 147 | 119 | 2.6 | 7.0 | 0.00 | 0.00 | 0.00 | 100 | 1010.9 |
| 20260906014848 | 146 | 132 | 3.5 | 7.0 | 0.00 | 0.00 | 0.00 | 100 | 1010.9 |
| 20260906014616 | 147 | 146 | 2.6 | 7.0 | 0.00 | 0.00 | 0.00 | 100 | 1010.9 |
| 20260906013846 | 147 | 163 | 1.7 | 7.0 | 0.00 | 0.00 | 0.00 | 100 | 1010.9 |
| 20260906013345 | 147 | 140 | 0.0 | 8.7 | 0.00 | 0.00 | 0.00 | 100 | 1010.9 |
| 20260906012844 | 147 | 127 | 4.3 | 9.6 | 0.00 | 0.00 | 0.00 | 100 | 1010.7 |
| 20260906012341 | 147 | 174 | 4.3 | 11.3 | 0.00 | 0.00 | 0.00 | 100 | 1010.8 |
| 20260906011842 | 147 | 144 | 1.7 | 11.3 | 0.00 | 0.00 | 0.00 | 100 | 1010.7 |
| 20260906011342 | 147 | 129 | 4.3 | 10.4 | 0.00 | 0.00 | 0.00 | 100 | 1010.7 |
| 20260906010841 | 147 | 146 | 4.3 | 11.3 | 0.00 | 0.00 | 0.00 | 100 | 1010.6 |
| 20260906010341 | 147 | 129 | 3.5 | 11.3 | 0.00 | 0.00 | 0.00 | 100 | 1010.6 |
| 20260906005841 | 147 | 106 | 2.6 | 9.6 | 0.00 | 0.00 | 0.00 | 100 | 1010.6 |
| 20260906005606 | 148 | 68 | 2.6 | 9.6 | 0.00 | 0.00 | 0.00 | 100 | 1010.5 |
| 20260906004835 | 147 | 150 | 1.7 | 7.0 | 0.00 | 0.00 | 0.00 | 100 | 1010.5 |
| 20260906004333 | 148 | 144 | 0.0 | 7.8 | 0.00 | 0.00 | 0.00 | 100 | 1010.5 |
| 20260906004055 | 148 | 157 | 3.5 | 7.8 | 0.00 | 0.00 | 0.00 | 100 | 1010.5 |
| 20260906003324 | 148 | 137 | 0.0 | 4.3 | 0.00 | 0.00 | 0.00 | 100 | 1010.5 |
| 20260906002821 | 148 | 113 | 0.0 | 3.5 | 0.00 | 0.00 | 0.00 | 100 | 1010.4 |
| 20260906002306 | 148 | 149 | 0.0 | 3.5 | 0.00 | 0.00 | 0.00 | 100 | 1010.3 |
| 20260906001800 | 148 | 154 | 0.0 | 0.0 | 0.00 | 0.00 | 0.00 | 100 | 1010.3 |
| 20260906001241 | 148 | 154 | 0.0 | 0.0 | 0.00 | 0.00 | 0.00 | 100 | 1010.3 |
| 20260906000735 | 148 | 154 | 0.0 | 1.7 | 0.00 | 0.00 | 0.00 | 100 | 1010.3 |
| 20260906000226 | 148 | 154 | 0.0 | 4.3 | 0.00 | 0.00 | 0.00 | 100 | 1010.3 |
| 20260905235723 | 148 | 154 | 1.7 | 4.3 | 0.00 | 0.00 | 0.00 | 100 | 1010.2 |
| 20260905235220 | 148 | 147 | 0.0 | 3.5 | 0.00 | 0.00 | 0.00 | 100 | 1010.2 |
| 20260905234704 | 148 | 147 | 0.0 | 3.5 | 0.00 | 0.00 | 0.00 | 100 | 1010.2 |
| 20260905234158 | 148 | 74 | 0.0 | 2.6 | 0.00 | 0.00 | 0.00 | 100 | 1010.2 |
| 20260905233648 | 148 | 40 | 0.0 | 1.7 | 0.00 | 0.00 | 0.00 | 100 | 1010.0 |
| 20260905233147 | 148 | 36 | 0.0 | 5.2 | 0.00 | 0.00 | 0.00 | 100 | 1010.0 |
| 20260905232637 | 148 | 36 | 1.7 | 5.2 | 0.00 | 0.00 | 0.00 | 100 | 1010.0 |
| 20260905232113 | 148 | 164 | 0.9 | 7.0 | 0.00 | 0.00 | 0.00 | 100 | 1010.0 |
| 20260905231613 | 149 | 140 | 0.9 | 7.0 | 0.00 | 0.00 | 0.00 | 100 | 1010.0 |
| 20260905231117 | 149 | 108 | 0.0 | 4.3 | 0.00 | 0.00 | 0.00 | 100 | 1010.0 |
| 20260905231113 | 149 | 115 | 1.7 | 6.1 | 0.00 | 0.00 | 0.00 | 100 | 1010.0 |
| 20260905230607 | 149 | 123 | 2.6 | 4.3 | 0.00 | 0.00 | 0.00 | 100 | 1010.0 |
| 20260905225604 | 149 | 143 | 0.0 | 5.2 | 0.00 | 0.00 | 0.00 | 100 | 1009.9 |
| 20260905225056 | 149 | 143 | 0.9 | 5.2 | 0.00 | 0.00 | 0.00 | 100 | 1010.0 |
| 20260905224557 | 149 | 77 | 0.9 | 4.3 | 0.00 | 0.00 | 0.00 | 100 | 1010.2 |
| 20260905224059 | 149 | 15 | 0.0 | 3.5 | 0.00 | 0.00 | 0.00 | 100 | 1010.0 |
| 20260905223555 | 149 | 136 | 0.0 | 3.5 | 0.00 | 0.00 | 0.00 | 100 | 1010.0 |
| 20260905223315 | 149 | 136 | 0.0 | 5.2 | 0.00 | 0.00 | 0.00 | 100 | 1010.0 |
| 20260905222522 | 148 | 146 | 1.7 | 5.2 | 0.00 | 0.00 | 0.00 | 100 | 1010.2 |
| 20260905222007 | 149 | 144 | 0.0 | 5.2 | 0.00 | 0.00 | 0.00 | 100 | 1010.2 |
| 20260905221506 | 149 | 227 | 0.0 | 5.2 | 0.00 | 0.00 | 0.00 | 100 | 1010.2 |
| 20260905221233 | 149 | 247 | 0.0 | 4.3 | 0.00 | 0.00 | 0.00 | 100 | 1010.3 |
| 20260905220444 | 149 | 239 | 2.6 | 4.3 | 0.00 | 0.00 | 0.00 | 100 | 1010.4 |
| 20260905220214 | 149 | 136 | 0.0 | 5.2 | 0.00 | 0.00 | 0.00 | 100 | 1010.4 |
| 20260905215433 | 149 | 137 | 1.7 | 5.2 | 0.00 | 0.00 | 0.00 | 100 | 1010.4 |
| 20260905214911 | 149 | 123 | 0.0 | 4.3 | 0.00 | 0.00 | 0.00 | 100 | 1010.4 |
| 20260905214406 | 149 | 146 | 0.0 | 6.1 | 0.00 | 0.00 | 0.00 | 100 | 1010.4 |
| 20260905213903 | 149 | 153 | 0.0 | 6.1 | 0.00 | 0.00 | 0.00 | 100 | 1010.4 |
| 20260905213401 | 149 | 116 | 0.0 | 1.7 | 0.00 | 0.00 | 0.00 | 100 | 1010.4 |
| 20260905212858 | 148 | 116 | 0.0 | 4.3 | 0.00 | 0.00 | 0.00 | 100 | 1010.4 |
| 20260905212357 | 148 | 116 | 1.7 | 4.3 | 0.00 | 0.00 | 0.00 | 100 | 1010.5 |
| 20260905211841 | 148 | 102 | 0.0 | 2.6 | 0.00 | 0.00 | 0.00 | 100 | 1010.5 |
| 20260905211319 | 149 | 102 | 0.0 | 3.5 | 0.00 | 0.00 | 0.00 | 100 | 1010.6 |
| 20260905210757 | 149 | 102 | 0.0 | 6.1 | 0.00 | 0.00 | 0.00 | 100 | 1010.6 |
| 20260905210528 | 149 | 136 | 3.5 | 6.1 | 0.00 | 0.00 | 0.00 | 100 | 1010.7 |
| 20260905205759 | 150 | 125 | 1.7 | 5.2 | 0.00 | 0.00 | 0.00 | 100 | 1010.7 |
| 20260905205258 | 150 | 237 | 0.9 | 7.8 | 0.00 | 0.00 | 0.00 | 100 | 1010.8 |
| 20260905204744 | 150 | 139 | 0.9 | 7.8 | 0.00 | 0.00 | 0.00 | 100 | 1010.9 |
| 20260905204242 | 150 | 82 | 0.0 | 7.0 | 0.00 | 0.00 | 0.00 | 100 | 1010.9 |
| 20260905203741 | 149 | 161 | 3.5 | 7.0 | 0.00 | 0.00 | 0.00 | 100 | 1011.1 |
| 20260905203241 | 150 | 180 | 0.0 | 6.1 | 0.00 | 0.00 | 0.00 | 100 | 1011.2 |
| 20260905202732 | 150 | 232 | 0.0 | 5.2 | 0.00 | 0.00 | 0.00 | 100 | 1011.1 |
| 20260905202232 | 150 | 213 | 0.0 | 6.1 | 0.00 | 0.00 | 0.00 | 100 | 1011.3 |
| 20260905201715 | 149 | 153 | 1.7 | 6.1 | 0.00 | 0.00 | 0.00 | 100 | 1011.4 |
| 20260905201215 | 150 | 180 | 2.6 | 3.5 | 0.00 | 0.00 | 0.00 | 100 | 1011.5 |
| 20260905200703 | 150 | 9 | 0.0 | 1.7 | 0.00 | 0.00 | 0.00 | 100 | 1011.6 |
| 20260905200431 | 149 | 9 | 0.0 | 2.6 | 0.00 | 0.00 | 0.00 | 100 | 1011.7 |
| 20260905195657 | 149 | 11 | 1.7 | 5.2 | 0.00 | 0.00 | 0.00 | 100 | 1011.7 |
| 20260905195157 | 150 | 125 | 0.9 | 7.0 | 0.00 | 0.00 | 0.00 | 100 | 1011.9 |
| 20260905194656 | 150 | 201 | 1.7 | 7.0 | 0.00 | 0.00 | 0.00 | 100 | 1011.9 |
| 20260905194143 | 150 | 296 | 0.0 | 7.0 | 0.00 | 0.00 | 0.00 | 100 | 1012.0 |
| 20260905193641 | 149 | 22 | 0.0 | 7.8 | 0.00 | 0.00 | 0.00 | 100 | 1012.1 |
| 20260905193139 | 149 | 133 | 3.5 | 7.8 | 0.00 | 0.00 | 0.00 | 100 | 1012.2 |
| 20260905192635 | 149 | 153 | 3.5 | 7.8 | 0.00 | 0.00 | 0.00 | 100 | 1012.3 |
| 20260905192135 | 149 | 191 | 3.5 | 7.0 | 0.00 | 0.00 | 0.00 | 100 | 1012.4 |
| 20260905191630 | 150 | 116 | 3.5 | 4.3 | 0.00 | 0.00 | 0.00 | 100 | 1012.5 |
| 20260905191358 | 150 | 185 | 0.0 | 3.5 | 0.00 | 0.00 | 0.00 | 100 | 1012.5 |
| 20260905190614 | 149 | 168 | 1.7 | 6.1 | 0.00 | 0.00 | 0.00 | 100 | 1012.8 |
| 20260905190113 | 149 | 175 | 2.6 | 8.7 | 0.00 | 0.00 | 0.00 | 100 | 1012.9 |
| 20260905185611 | 149 | 18 | 4.3 | 8.7 | 0.00 | 0.00 | 0.00 | 100 | 1012.9 |
| 20260905185112 | 149 | 1 | 0.9 | 8.7 | 0.00 | 0.00 | 0.00 | 100 | 1013.0 |
| 20260905184606 | 148 | 223 | 0.0 | 8.7 | 0.00 | 0.00 | 0.00 | 100 | 1013.0 |
| 20260905184333 | 149 | 45 | 0.9 | 9.6 | 0.00 | 0.00 | 0.00 | 100 | 1013.2 |
| 20260905183602 | 148 | 177 | 3.5 | 9.6 | 0.00 | 0.00 | 0.00 | 100 | 1013.3 |
| 20260905183102 | 149 | 156 | 2.6 | 5.2 | 0.00 | 0.00 | 0.00 | 100 | 1013.4 |
| 20260905182603 | 149 | 115 | 0.0 | 7.8 | 0.00 | 0.00 | 0.00 | 100 | 1013.5 |
| 20260905182101 | 148 | 157 | 1.7 | 7.8 | 0.00 | 0.00 | 0.00 | 100 | 1013.6 |
| 20260905181601 | 149 | 139 | 0.0 | 6.1 | 0.00 | 0.00 | 0.00 | 100 | 1013.6 |
| 20260905181059 | 149 | 151 | 0.0 | 9.6 | 0.00 | 0.00 | 0.00 | 100 | 1013.8 |
| 20260905180556 | 148 | 108 | 2.6 | 9.6 | 0.00 | 0.00 | 0.00 | 100 | 1014.0 |
| 20260905180328 | 148 | 156 | 5.2 | 7.8 | 0.00 | 0.00 | 0.00 | 100 | 1014.0 |
| 20260905175557 | 148 | 174 | 5.2 | 10.4 | 0.00 | 0.00 | 0.00 | 100 | 1014.1 |
| 20260905175057 | 148 | 130 | 3.5 | 10.4 | 0.00 | 0.00 | 0.00 | 100 | 1014.3 |
| 20260905174557 | 148 | 26 | 0.9 | 7.0 | 0.00 | 0.00 | 0.00 | 100 | 1014.3 |
| 20260905174057 | 147 | 142 | 1.7 | 6.1 | 0.00 | 0.00 | 0.00 | 100 | 1014.5 |
| 20260905173556 | 148 | 146 | 2.6 | 6.1 | 0.00 | 0.00 | 0.00 | 100 | 1014.4 |
| 20260905173057 | 148 | 14 | 0.0 | 6.1 | 0.00 | 0.00 | 0.00 | 100 | 1014.5 |
| 20260905172557 | 148 | 157 | 0.9 | 4.3 | 0.00 | 0.00 | 0.00 | 100 | 1014.5 |
| 20260905172053 | 148 | 167 | 2.6 | 4.3 | 0.00 | 0.00 | 0.00 | 100 | 1014.7 |
| 20260905171539 | 148 | 147 | 0.9 | 5.2 | 0.00 | 0.00 | 0.00 | 100 | 1014.6 |
| 20260905171039 | 147 | 135 | 3.5 | 8.7 | 0.00 | 0.00 | 0.00 | 100 | 1014.7 |
| 20260905170808 | 147 | 91 | 5.2 | 8.7 | 0.00 | 0.00 | 0.00 | 100 | 1014.7 |
| 20260905170029 | 147 | 115 | 0.0 | 7.8 | 0.00 | 0.00 | 0.00 | 100 | 1014.7 |
| 20260905165801 | 148 | 149 | 0.9 | 7.8 | 0.00 | 0.00 | 0.00 | 100 | 1014.7 |
| 20260905165021 | 148 | 133 | 3.5 | 5.2 | 0.00 | 0.00 | 0.00 | 100 | 1014.8 |
| 20260905164516 | 147 | 109 | 0.0 | 7.8 | 0.00 | 0.00 | 0.00 | 100 | 1014.9 |
| 20260905164006 | 147 | 149 | 0.0 | 7.8 | 0.00 | 0.00 | 0.00 | 100 | 1014.9 |
| 20260905163734 | 147 | 161 | 2.6 | 7.8 | 0.00 | 0.00 | 0.00 | 100 | 1014.9 |
| 20260905163003 | 147 | 150 | 4.3 | 7.8 | 0.00 | 0.00 | 0.00 | 100 | 1014.8 |
| 20260905162502 | 147 | 143 | 1.7 | 7.0 | 0.00 | 0.00 | 0.00 | 100 | 1014.8 |
| 20260905162232 | 147 | 180 | 4.3 | 7.0 | 0.00 | 0.00 | 0.00 | 100 | 1014.8 |
| 20260905161732 | 147 | 125 | 0.0 | 7.0 | 0.00 | 0.00 | 0.00 | 100 | 1014.9 |
| 20260905160959 | 146 | 182 | 4.3 | 7.0 | 0.00 | 0.00 | 0.00 | 100 | 1015.0 |
| 20260905160729 | 147 | 140 | 3.5 | 7.0 | 0.00 | 0.00 | 0.00 | 100 | 1014.9 |
| 20260905155959 | 146 | 146 | 0.0 | 9.6 | 0.00 | 0.00 | 0.00 | 100 | 1014.9 |
| 20260905155456 | 147 | 170 | 0.0 | 9.6 | 0.00 | 0.00 | 0.00 | 100 | 1014.9 |
| 20260905154957 | 147 | 188 | 4.3 | 7.8 | 0.00 | 0.00 | 0.00 | 100 | 1014.8 |
| 20260905154458 | 146 | 217 | 2.6 | 7.8 | 0.00 | 0.00 | 0.00 | 100 | 1014.8 |
| 20260905153958 | 146 | 151 | 2.6 | 7.8 | 0.00 | 0.00 | 0.00 | 100 | 1014.8 |
| 20260905153457 | 146 | 244 | 4.3 | 7.8 | 0.00 | 0.00 | 0.00 | 100 | 1014.8 |
| 20260905152956 | 146 | 151 | 1.7 | 7.8 | 0.00 | 0.00 | 0.00 | 100 | 1014.9 |
| 20260905152727 | 146 | 239 | 5.2 | 7.8 | 0.00 | 0.00 | 0.00 | 100 | 1014.9 |
| 20260905151957 | 147 | 229 | 1.7 | 7.0 | 0.00 | 0.00 | 0.00 | 100 | 1014.9 |
| 20260905151458 | 146 | 246 | 0.0 | 6.1 | 0.00 | 0.00 | 0.00 | 100 | 1014.8 |
| 20260905150957 | 146 | 236 | 0.9 | 6.1 | 0.00 | 0.00 | 0.00 | 100 | 1014.9 |
| 20260905150457 | 145 | 222 | 0.0 | 7.0 | 0.00 | 0.00 | 0.00 | 100 | 1014.9 |
| 20260905145956 | 145 | 164 | 3.5 | 7.0 | 0.00 | 0.00 | 0.00 | 100 | 1014.9 |
| 20260905145456 | 145 | 187 | 0.0 | 6.1 | 0.00 | 0.00 | 0.00 | 100 | 1014.9 |
| 20260905144951 | 145 | 123 | 3.5 | 6.1 | 0.00 | 0.00 | 0.00 | 100 | 1014.8 |
| 20260905144451 | 145 | 137 | 0.0 | 5.2 | 0.00 | 0.00 | 0.00 | 100 | 1014.7 |
| 20260905143942 | 145 | 170 | 0.0 | 5.2 | 0.00 | 0.00 | 0.00 | 100 | 1014.7 |
| 20260905143439 | 145 | 136 | 0.0 | 5.2 | 0.00 | 0.00 | 0.00 | 100 | 1014.8 |
| 20260905143210 | 145 | 220 | 0.9 | 5.2 | 0.00 | 0.00 | 0.00 | 100 | 1014.7 |
| 20260905142712 | 145 | 113 | 0.0 | 2.6 | 0.00 | 0.00 | 0.00 | 100 | 1014.7 |
| 20260905141919 | 145 | 113 | 0.0 | 2.6 | 0.00 | 0.00 | 0.00 | 100 | 1014.7 |
| 20260905141344 | 144 | 113 | 0.0 | 5.2 | 0.00 | 0.00 | 0.00 | 100 | 1014.7 |
| 20260905140833 | 144 | 125 | 0.9 | 5.2 | 0.00 | 0.00 | 0.00 | 100 | 1014.6 |
| 20260905140331 | 144 | 154 | 3.5 | 4.3 | 0.00 | 0.00 | 0.00 | 100 | 1014.6 |
| 20260905135830 | 144 | 154 | 0.0 | 4.3 | 0.00 | 0.00 | 0.00 | 100 | 1014.6 |
| 20260905135330 | 144 | 181 | 0.0 | 0.0 | 0.00 | 0.00 | 0.00 | 100 | 1014.5 |
| 20260905134830 | 144 | 181 | 0.0 | 0.0 | 0.00 | 0.00 | 0.00 | 2 | 1014.4 |
| 20260905134311 | 144 | 181 | 0.0 | 0.0 | 0.00 | 0.00 | 0.00 | 4 | 1014.4 |
| 20260905133808 | 144 | 181 | 0.0 | 0.0 | 0.00 | 0.00 | 0.00 | 14 | 1014.4 |
| 20260905133300 | 143 | 181 | 0.0 | 0.0 | 0.00 | 0.00 | 0.00 | 29 | 1014.5 |
| 20260905132754 | 143 | 181 | 0.0 | 0.0 | 0.00 | 0.00 | 0.00 | 47 | 1014.5 |
| 20260905132242 | 143 | 181 | 0.0 | 0.0 | 0.00 | 0.00 | 0.00 | 65 | 1014.4 |
| 20260905131741 | 143 | 181 | 0.0 | 0.0 | 0.00 | 0.00 | 0.00 | 96 | 1014.3 |
| 20260905131509 | 143 | 181 | 0.0 | 0.0 | 0.00 | 0.00 | 0.00 | 100 | 1014.3 |
| 20260905130714 | 143 | 181 | 0.0 | 0.0 | 0.00 | 0.00 | 0.00 | 100 | 1014.3 |
| 20260905130215 | 143 | 181 | 0.0 | 0.0 | 0.00 | 0.00 | 0.00 | 100 | 1014.2 |
| 20260905125714 | 143 | 181 | 0.0 | 0.0 | 0.00 | 0.00 | 0.00 | 100 | 1014.2 |
| 20260905125212 | 143 | 181 | 0.0 | 0.0 | 0.00 | 0.00 | 0.00 | 100 | 1014.2 |
| 20260905124658 | 143 | 181 | 0.0 | 0.0 | 0.00 | 0.00 | 0.00 | 100 | 1014.0 |
| 20260905124157 | 143 | 181 | 0.0 | 0.0 | 0.00 | 0.00 | 0.00 | 100 | 1013.9 |
| 20260905123635 | 143 | 181 | 0.0 | 0.0 | 0.00 | 0.00 | 0.00 | 100 | 1013.9 |
| 20260905123127 | 142 | 181 | 0.0 | 0.0 | 0.00 | 0.00 | 0.00 | 100 | 1013.9 |
| 20260905122617 | 143 | 181 | 0.0 | 0.0 | 0.00 | 0.00 | 0.00 | 100 | 1013.9 |
| 20260905122117 | 142 | 181 | 0.0 | 0.0 | 0.00 | 0.00 | 0.00 | 100 | 1013.9 |
| 20260905121554 | 142 | 181 | 0.0 | 0.0 | 0.00 | 0.00 | 0.00 | 100 | 1013.9 |
| 20260905121041 | 143 | 181 | 0.0 | 0.0 | 0.00 | 0.00 | 0.00 | 100 | 1013.8 |
| 20260905120539 | 142 | 181 | 0.0 | 0.0 | 0.00 | 0.00 | 0.00 | 100 | 1013.8 |
| 20260905120248 | 142 | 181 | 0.0 | 0.0 | 0.00 | 0.00 | 0.00 | 100 | 1013.8 |
| 20260905115512 | 142 | 181 | 0.0 | 0.0 | 0.00 | 0.00 | 0.00 | 100 | 1013.6 |
| 20260905115002 | 142 | 181 | 0.0 | 0.0 | 0.00 | 0.00 | 0.00 | 100 | 1013.5 |
| 20260905114457 | 143 | 181 | 0.0 | 0.0 | 0.00 | 0.00 | 0.00 | 100 | 1013.5 |
| 20260905113935 | 143 | 181 | 0.0 | 0.0 | 0.00 | 0.00 | 0.00 | 100 | 1013.5 |
| 20260905113407 | 143 | 181 | 0.0 | 0.0 | 0.00 | 0.00 | 0.00 | 100 | 1013.5 |
| 20260905113138 | 143 | 181 | 0.0 | 0.0 | 0.00 | 0.00 | 0.00 | 95 | 1013.3 |
| 20260905112629 | 143 | 181 | 0.0 | 0.0 | 0.00 | 0.00 | 0.00 | 92 | 1013.3 |
| 20260905111856 | 143 | 181 | 0.0 | 0.0 | 0.00 | 0.00 | 0.00 | 92 | 1013.4 |
| 20260905111604 | 143 | 181 | 0.0 | 0.0 | 0.00 | 0.00 | 0.00 | 92 | 1013.4 |
| 20260905110829 | 143 | 181 | 0.0 | 0.0 | 0.00 | 0.00 | 0.00 | 91 | 1013.3 |
| 20260905110326 | 143 | 181 | 0.0 | 0.0 | 0.00 | 0.00 | 0.00 | 45 | 1013.3 |
| 20260905105828 | 143 | 181 | 0.0 | 0.0 | 0.00 | 0.00 | 0.00 | 41 | 1013.2 |
| 20260905105324 | 143 | 181 | 0.0 | 0.0 | 0.00 | 0.00 | 0.00 | 41 | 1013.2 |
| 20260905104817 | 143 | 181 | 0.0 | 0.0 | 0.00 | 0.00 | 0.00 | 33 | 1013.2 |
| 20260905104254 | 143 | 181 | 0.0 | 0.0 | 0.00 | 0.00 | 0.00 | 30 | 1013.2 |
| 20260905103731 | 143 | 181 | 0.0 | 0.0 | 0.00 | 0.00 | 0.00 | 26 | 1013.2 |
| 20260905103223 | 143 | 181 | 0.0 | 0.0 | 0.00 | 0.00 | 0.00 | 23 | 1013.2 |
| 20260905102713 | 143 | 181 | 0.0 | 0.0 | 0.00 | 0.00 | 0.00 | 19 | 1013.2 |
| 20260905102212 | 143 | 181 | 0.0 | 0.0 | 0.00 | 0.00 | 0.00 | 17 | 1013.2 |
| 20260905101712 | 143 | 181 | 0.0 | 0.0 | 0.00 | 0.00 | 0.00 | 15 | 1013.3 |
| 20260905101212 | 143 | 181 | 0.0 | 0.0 | 0.00 | 0.00 | 0.00 | 15 | 1013.2 |
| 20260905100706 | 143 | 181 | 0.0 | 0.0 | 0.00 | 0.00 | 0.00 | 13 | 1013.2 |